[[{"header":{"parameterUnit":"m.s-1","parameterCategory":1,"la1":30.2991,"la2":30.254,"lo1":-89.0895,"lo2":-89.0444,"dy":0.0017,"dx":0.0017,"nx":28,"ny":28,"refTime":"2024-02-19T09:00:00:Z","depth":0,"parameterNumber":2,"parameterNumberName":"U-component_of_WINDS"},"data":[0,0,0,0,0,0,0,0,0,0,0,0,0,0,0,0,0,0,0,0,0,0,0,0,0,0,0,0,0,0,0,0,0,0,0,0,0,0,0,0,0,0,0,0,0,0,0,0,0,0,0,0,0,0,0,0,0,0,2.6129,2.613,0,2.625,2.6251,2.6252,2.625,2.6249,2.6247,2.6246,2.6367,2.6371,2.6376,0,0,0,0,0,0,0,0,0,0,0,0,0,2.5892,2.5897,2.6129,2.613,2.6132,2.6249,2.6251,2.6253,2.6251,2.6249,2.6247,2.6245,2.6365,2.6371,2.6376,0,0,0,0,0,0,0,0,0,0,0,0,0,2.6002,2.5898,2.6129,2.6145,2.6148,2.6249,2.6251,2.6253,2.6251,2.6249,2.6246,2.6244,2.6363,2.637,2.6377,2.6469,0,0,2.6399,2.6402,0,0,0,0,0,0,0,0,2.5996,2.6011,2.6141,2.6144,2.6147,2.6233,2.6212,2.6325,2.6252,2.6212,2.6246,2.6243,2.6324,2.6334,2.6362,2.6475,2.648,2.6399,2.6404,2.6407,2.6409,0,0,0,0,0,0,0,2.5988,2.6006,2.6177,2.6143,2.6147,2.6145,2.6158,2.6233,2.628,2.6215,2.6215,2.623,2.6325,2.6355,2.6365,2.6482,2.6399,2.6405,2.641,2.6413,2.6672,2.6675,0,0,0,0,0,0,2.5978,2.5999,2.6173,2.618,2.6064,2.6151,2.6166,2.6208,2.6279,2.6288,2.6232,2.6229,2.6344,2.6356,2.6369,2.6479,2.6407,2.6413,2.6417,2.667,2.6673,2.6676,0,0,0,0,0,0,2.5973,2.5993,2.6168,2.609,2.6112,2.6158,2.6205,2.6211,2.6241,2.6292,2.6299,2.6254,2.6343,2.6359,2.6444,2.6483,2.6416,2.6423,2.6667,2.6671,2.6674,2.6701,0,0,0,0,0,0,2.5966,2.5991,2.6028,2.6091,2.6116,2.6242,2.6207,2.6215,2.6254,2.6252,2.6315,2.6323,2.6342,2.6433,2.6451,2.6491,2.6428,2.6663,2.6668,2.6673,2.6696,2.6705,2.6712,0,0,0,0,0,2.5957,2.6031,2.603,2.6051,2.6163,2.6244,2.6259,2.628,2.6257,2.6293,2.6325,2.6321,2.6476,2.6442,2.6461,2.6505,2.6661,2.6667,2.6673,2.6693,2.6703,2.6712,0,0,0,0,0,0,2.5972,2.604,2.6039,2.6136,2.6184,2.6244,2.629,2.6291,2.6347,2.6342,2.6366,2.638,2.6464,2.6493,2.6454,2.6596,2.6565,2.6576,2.6574,2.6584,2.6592,2.6582,2.6434,0,0,0,0,0,2.5986,2.6047,2.6103,2.6182,2.6207,2.6244,2.6281,2.6293,2.6344,2.6364,2.6402,2.6451,2.651,2.6549,2.6607,2.6701,2.6713,2.6741,2.6748,2.6755,2.6763,2.6811,2.6823,2.6695,2.6695,2.6695,0,0,2.6016,2.6061,2.6098,2.6186,2.6226,2.6287,2.6262,2.6329,2.6373,2.6374,2.6456,2.6485,2.6541,2.663,2.6671,2.6657,2.6801,2.6762,2.6767,2.6772,2.6819,2.6831,2.6841,2.67,2.6699,2.6698,0,0,2.6102,2.6143,2.6212,2.6252,2.6311,2.6335,2.6352,2.6411,2.6431,2.6513,2.6514,2.6567,2.6671,2.6709,2.6742,2.684,2.6837,2.6858,2.6899,2.6946,2.6956,2.6965,2.6997,2.7009,2.6866,2.6866,2.6866,0,2.6132,2.6225,2.6248,2.6314,2.6351,2.6355,2.6424,2.6461,2.6536,2.656,2.6544,2.6671,2.6709,2.6805,2.6829,2.6857,2.6874,2.685,2.6953,2.6962,2.6971,2.7002,2.7014,2.6868,2.6868,2.6868,2.6868,0,2.6257,2.6322,2.637,2.6442,2.6485,2.6553,2.6583,2.6624,2.6632,2.6657,2.6739,2.6785,2.685,2.6874,2.6883,2.6971,2.696,2.6949,2.6918,2.6985,2.7014,2.7026,2.6871,2.6871,2.687,2.6869,0,0,2.6356,2.6438,2.6455,2.6486,2.6551,2.6601,2.6667,2.6732,2.6764,2.6816,2.687,2.6956,2.6944,2.6982,2.6995,2.7037,2.7107,2.7019,2.7021,2.7032,2.7203,2.721,2.7224,2.7106,2.7109,2.711,2.7198,0,2.6446,2.6565,2.6586,2.6688,2.6746,2.675,2.6807,2.6851,2.6876,2.6928,2.6955,2.7014,2.6996,2.7019,2.706,2.709,2.7142,2.7084,2.7154,2.7157,2.7138,2.724,2.7248,2.7328,2.721,2.7212,2.7213,0,2.6568,2.6622,2.673,2.6784,2.681,2.6861,2.692,2.697,2.702,2.7035,2.7076,2.7083,2.7149,2.7117,2.7207,2.7167,2.7197,2.7216,2.722,2.7225,2.7188,2.7246,2.7355,2.7366,2.7232,2.723,2.7229,0,2.6626,2.6725,2.6802,2.6829,2.6895,2.693,2.6959,2.7007,2.7043,2.7095,2.7118,2.7177,2.7208,2.7252,2.7274,2.7249,2.7362,2.7332,2.7374,2.7373,2.7396,2.7394,2.7509,2.742,2.7419,2.7419,2.7419,0,2.6724,2.6789,2.6828,2.6875,2.6948,2.697,2.7041,2.7069,2.7111,2.7162,2.7168,2.7216,2.7243,2.7294,2.7312,2.7382,2.7397,2.7409,2.7412,2.7407,2.7405,2.7426,2.742,2.7422,2.7422,2.7421,2.742,0,2.68,2.6829,2.6912,2.6968,2.6983,2.7033,2.708,2.7124,2.7148,2.7213,2.7229,2.7266,2.7326,2.7353,2.7427,2.7439,2.7518,2.7519,2.7501,2.7502,2.7542,2.7537,2.7672,2.769,2.7591,2.7592,2.7592,0,2.6859,2.6909,2.6969,2.7004,2.7034,2.709,2.7127,2.715,2.7188,2.7247,2.7284,2.7344,2.7393,2.7488,2.7521,2.7577,2.7578,2.7621,2.7586,2.7578,2.7575,2.7571,2.7575,2.7627,2.7628,2.7629,2.763,0,2.6961,2.6972,2.7025,2.7083,2.7127,2.7173,2.7219,2.7246,2.7277,2.7318,2.738,2.7418,2.7492,2.7551,2.7609,2.7637,2.7637,2.7641,2.7653,2.7647,2.7633,2.7638,2.7516,2.7637,2.7636,2.7636,2.7635,2.7635,2.7029,2.7072,2.712,2.7179,2.7215,2.7257,2.73,2.733,2.7381,2.7444,2.7455,2.7519,2.7565,2.7642,2.7672,2.7722,2.7711,2.773,2.7734,2.7737,2.7738,2.7627,2.7733,2.7733,2.7732,2.7732,2.7732,0,2.7128,2.7159,2.7212,2.7275,2.732,2.7318,2.7367,2.7404,2.7461,2.7504,2.7552,2.7621,2.7677,2.7714,2.777,2.7803,2.7804,2.7816,2.7813,2.7819,2.7746,2.7729,2.7814,2.7814,2.7814,2.7814,2.7814,2.7814,2.7185,2.7257,2.7274,2.7364,2.7394,2.7457,2.7485,2.7523,2.7557,2.7633,2.768,2.7704,2.7744,2.7802,2.7853,2.7862,2.7881,2.7894,2.7902,2.7833,2.7824,2.7816,2.78,2.7899,2.7899,2.797,2.7971,2.7972]},{"header":{"parameterUnit":"m.s-1","parameterCategory":1,"la1":30.2991,"la2":30.254,"lo1":-89.0895,"lo2":-89.0444,"dy":0.0017,"dx":0.0017,"nx":28,"ny":28,"refTime":"2024-02-19T09:00:00:Z","depth":0,"parameterNumber":3,"parameterNumberName":"V-component_of_WINDS"},"data":[0,0,0,0,0,0,0,0,0,0,0,0,0,0,0,0,0,0,0,0,0,0,0,0,0,0,0,0,0,0,0,0,0,0,0,0,0,0,0,0,0,0,0,0,0,0,0,0,0,0,0,0,0,0,0,0,0,0,1.4428,1.4427,0,1.4327,1.4326,1.4325,1.4236,1.4235,1.4234,1.4233,1.4129,1.4127,1.4125,0,0,0,0,0,0,0,0,0,0,0,0,0,1.4541,1.4539,1.4428,1.4427,1.4426,1.4328,1.4326,1.4325,1.4236,1.4235,1.4234,1.4233,1.4129,1.4127,1.4125,0,0,0,0,0,0,0,0,0,0,0,0,0,1.4471,1.4539,1.4429,1.437,1.4364,1.4328,1.4326,1.4325,1.4236,1.4235,1.4233,1.4232,1.413,1.4127,1.4125,1.4139,0,0,1.4116,1.4115,0,0,0,0,0,0,0,0,1.4475,1.4467,1.438,1.4374,1.4367,1.4293,1.4328,1.4262,1.4237,1.4285,1.4233,1.4231,1.4184,1.4177,1.4162,1.4134,1.413,1.4116,1.4114,1.4113,1.4113,0,0,0,0,0,0,0,1.448,1.4471,1.4388,1.4379,1.4371,1.4347,1.4336,1.4315,1.4244,1.428,1.4274,1.4263,1.4181,1.4164,1.4159,1.4128,1.4116,1.4114,1.4112,1.4111,1.4103,1.4104,0,0,0,0,0,0,1.4494,1.4476,1.4392,1.4385,1.4418,1.4347,1.4334,1.4318,1.4244,1.4232,1.4264,1.4259,1.417,1.4162,1.4155,1.4164,1.4113,1.4111,1.4109,1.4101,1.4103,1.4104,0,0,0,0,0,0,1.4497,1.4488,1.4396,1.4429,1.4415,1.4346,1.433,1.4317,1.4301,1.4232,1.4219,1.4261,1.4168,1.4158,1.4143,1.4159,1.411,1.4107,1.41,1.4102,1.4104,1.4184,0,0,0,0,0,0,1.4501,1.4489,1.4495,1.4429,1.4414,1.4387,1.4331,1.4316,1.4296,1.4289,1.4226,1.4214,1.4166,1.4147,1.414,1.4154,1.4105,1.4098,1.41,1.4103,1.418,1.4189,1.4197,0,0,0,0,0,1.4505,1.4523,1.4496,1.4486,1.442,1.4388,1.4379,1.4324,1.4298,1.4302,1.4258,1.4216,1.4158,1.4146,1.4137,1.4151,1.4096,1.41,1.4103,1.4176,1.4187,1.4196,0,0,0,0,0,0,1.4593,1.4513,1.4483,1.448,1.4441,1.4373,1.4377,1.4338,1.4307,1.4301,1.4233,1.422,1.4211,1.4179,1.4167,1.4159,1.4121,1.4123,1.418,1.419,1.4198,1.4206,1.4103,0,0,0,0,0,1.4611,1.4593,1.4524,1.4528,1.451,1.4447,1.4432,1.4392,1.435,1.4333,1.4288,1.4248,1.422,1.4203,1.4174,1.4175,1.4158,1.4179,1.4188,1.4195,1.4197,1.4191,1.4199,1.4115,1.4115,1.4115,0,0,1.4651,1.4605,1.4597,1.4544,1.451,1.4491,1.4434,1.4418,1.4402,1.4331,1.4312,1.4277,1.4228,1.4219,1.4213,1.4193,1.4216,1.4199,1.4205,1.4203,1.4195,1.4204,1.4211,1.4117,1.4117,1.4116,0,0,1.4712,1.4676,1.4674,1.464,1.4588,1.4546,1.4545,1.4482,1.4456,1.4437,1.4381,1.4361,1.4316,1.4282,1.4259,1.4303,1.4262,1.4296,1.434,1.4335,1.4342,1.4347,1.4361,1.4367,1.4298,1.4298,1.4298,0,1.4767,1.4737,1.4678,1.4663,1.464,1.4573,1.4569,1.4539,1.4481,1.4466,1.4444,1.4383,1.4345,1.4326,1.4337,1.4321,1.4316,1.4303,1.4346,1.435,1.4355,1.4367,1.4372,1.4302,1.4302,1.4301,1.4301,0,1.4806,1.4786,1.479,1.4734,1.4712,1.4703,1.4641,1.4625,1.4587,1.4546,1.4525,1.4477,1.4435,1.4428,1.4391,1.4403,1.4391,1.4358,1.4319,1.4368,1.4378,1.4383,1.4308,1.4307,1.4306,1.4305,0,0,1.4921,1.4831,1.4833,1.4805,1.4742,1.4725,1.4711,1.4671,1.4657,1.4618,1.4604,1.4566,1.4533,1.4507,1.4465,1.4462,1.4496,1.4428,1.4426,1.4441,1.4503,1.4528,1.4534,1.4469,1.4469,1.447,1.4506,0,1.4971,1.4944,1.4888,1.4878,1.4857,1.4792,1.4779,1.4738,1.4699,1.4674,1.463,1.4603,1.4564,1.4547,1.4541,1.4494,1.4508,1.449,1.4453,1.4452,1.4467,1.454,1.4567,1.4604,1.451,1.4511,1.4511,0,1.5026,1.499,1.4977,1.4912,1.4901,1.4892,1.4848,1.4826,1.4777,1.4748,1.4717,1.467,1.465,1.4614,1.4585,1.4574,1.4555,1.4529,1.4529,1.4523,1.4485,1.4534,1.4614,1.462,1.4518,1.4517,1.4517,0,1.5109,1.5057,1.5042,1.5021,1.4945,1.4939,1.4907,1.4856,1.4834,1.4796,1.478,1.474,1.4718,1.4687,1.4629,1.4609,1.4605,1.4565,1.4579,1.458,1.4581,1.4582,1.4658,1.4571,1.4571,1.4571,1.4571,0,1.517,1.5164,1.5078,1.5069,1.506,1.4995,1.4988,1.4949,1.4904,1.4885,1.4825,1.4808,1.4734,1.4708,1.4663,1.4643,1.4634,1.4609,1.4597,1.4614,1.4617,1.46,1.4596,1.4572,1.4572,1.4571,1.4571,0,1.5261,1.5204,1.5183,1.5112,1.5093,1.509,1.5028,1.5015,1.4972,1.4948,1.4938,1.4869,1.4835,1.4774,1.4723,1.4692,1.4681,1.4661,1.4698,1.469,1.4707,1.4706,1.4774,1.4779,1.4691,1.4692,1.4693,0,1.5304,1.5298,1.5225,1.5208,1.5178,1.5151,1.5128,1.5063,1.5041,1.4982,1.4976,1.4937,1.4902,1.4849,1.4794,1.4753,1.4731,1.4757,1.4724,1.474,1.4729,1.4729,1.4727,1.4765,1.4766,1.4767,1.4768,0,1.5384,1.5355,1.5324,1.5282,1.5255,1.5219,1.518,1.5169,1.5095,1.5072,1.5036,1.5009,1.4955,1.4916,1.4866,1.4831,1.4787,1.4779,1.4779,1.4797,1.4817,1.4804,1.4717,1.4778,1.4777,1.4776,1.4776,1.4775,1.5451,1.5442,1.5388,1.5355,1.5318,1.5282,1.5265,1.5219,1.5188,1.5139,1.5102,1.5068,1.5014,1.4944,1.4911,1.4882,1.4861,1.4863,1.4863,1.4865,1.487,1.4823,1.4873,1.4872,1.4872,1.4872,1.4871,0,1.5527,1.5489,1.5458,1.5405,1.5377,1.5337,1.5291,1.527,1.5241,1.5196,1.5162,1.5119,1.5079,1.502,1.4975,1.4963,1.4941,1.4954,1.4953,1.4945,1.4892,1.4895,1.4972,1.4972,1.4972,1.4972,1.4972,1.4972,1.5563,1.5544,1.5508,1.5469,1.543,1.5397,1.5373,1.5338,1.5301,1.5256,1.5223,1.5184,1.5132,1.5082,1.5044,1.5027,1.5012,1.5031,1.5008,1.4959,1.495,1.4941,1.4943,1.5029,1.5029,1.5063,1.5063,1.5064]}]]